CZ-6A DEB, 54928

Orbit data source: Space-Track

CZ-6A DEB, 54928 is space debris in SSO originally from a launch on Fri, 11 Nov 2022 UTC launched from the Taiyaun Space Center, China (TSC). Debris objects in space refer to the collection of defunct objects orbiting the Earth. Examples of debris include non-operational satellites, rocket bodies, and fragments generated from explosions, collisions, or faulty payload assembly.

Loading next visibility...
Identifier
54928, 2022-151RR
Orbit
SSO
Country
Flag of CNCN / PRC
Related business
Manufacturer
SAST
Mission
Spacecraft
Bus & Motor
Unknown
Mass
Unknown
Launch date (UTC)
2022-11-11 (4 years ago)
Launch vehicle
Unknown
Launch site
Taiyaun Space Center, China (TSC)
Object type
Payload
Rocket body
Debris
Shape & HBR
Unknown shape, 0.1 m
Radar Cross Section
Medium (>0.1 m² and <1 m²)

Expand to show TLE details & history
Last TLE update: 17 hours ago

TLE from 17 hours ago
0 CZ-6A DEB
1 54928U 22151RR  26206.35332471  .00001931  00000-0  60124-3 0  9993
2 54928  98.6185 237.8183 0056754 254.8948 104.5957 14.41179993193345
Epoch: 2026-07-25T08:28Z
TLE epoch observation values (Epoch: 2026-07-25T08:28:47.254Z)
Latitude
-0.00007°
Longitude
167.5546°
Altitude
767.967 km
Speed
7.465 km/s
True Right ascension
15h 51m 16s
True Declination
0° 00' 00"
Sunlit
Object was in daylight at epoch
Visualization orbit readout
Latitude
Unknown
Longitude
Unknown
Altitude
Unknown
Speed
Unknown
Apparent Right ascension
Unknown
Apparent Declination
Unknown
Sunlit
N/A
Visualization observer readout
Local Sidereal Time
15:10:17
Azimuth
Unknown
Elevation
Unknown
Doppler factor
Unknown
Orbital elements
Apogee altitude
792.193 km
Perigee altitude
711.263 km
Semi-major axis
7,129.865 km
Eccentricity
0.00568
Inclination
98.6185°
RAAN
237.8183°
Arg. of periapsis
254.8948°
True anomaly
105.22393°
Mean anomaly
104.5957°
Eccentric anomaly
104.90993°
Mean motion
3.60513 °/min
Orbital period
99.86 mins
BSTAR
0.00060124
Loading maneuver chart data...
Computing Atmospheric mass density...
Loading historical data...
Loading historical data...
Loading historical data...
Loading historical data...
Loading historical data...
Loading historical data...
Loading historical data...

Documentation

Showing up to 5 results
|